Dewpoint
53 54 55 52 51 50 50 51 51 52 50 48 48 47 48 48 48 49 48 47 47 47 46 47 47 46 32 19 22 29 36 32 26 24 20 14 10 9 9 10 10 10 12 14 16 14 14
51 51 51 54 52 51 49 50 50 49 48 47 45 48 49 48 49 49 49 48 47 47 46 46 46 44 25 14 27 24 23 22 23 23 22 19 12 13 12 12 11 12 15 14 15 16 18
48 48 49 50 53 51 50 49 49 45 44 47 47 47 48 49 50 49 48 48 47 46 46 46 45 25 20 21 18 18 19 21 23 23 21 23 21 14 13 12 14 15 11 13 14 16 17
47 45 48 48 48 51 51 50 49 48 45 44 46 46 48 49 49 48 48 46 47 45 46 47 42 21 17 24 22 16 19 19 24 22 23 25 21 18 15 14 14 16 16 13 15 17 19
47 47 45 45 46 48 51 51 50 49 45 43 46 45 47 49 48 48 49 47 47 46 46 44 29 20 15 24 17 16 19 20 22 23 24 28 25 20 20 16 15 13 12 16 14 18 17
48 48 48 46 45 46 48 50 51 49 46 46 47 44 46 47 48 48 50 48 47 43 39 33 24 14 17 16 18 19 18 21 20 21 16 25 22 22 22 24 17 9 13 13 15 13 16
48 49 49 48 47 45 46 47 49 50 49 49 47 45 47 47 49 51 48 39 26 25 25 17 17 17 20 19 20 18 20 18 19 17 11 20 22 17 13 20 17 13 12 13 7 9 13
48 49 49 46 46 48 45 45 46 49 49 48 46 47 48 48 50 50 42 29 21 19 21 23 20 18 19 19 14 17 19 12 12 11 17 16 16 20 14 10 8 5 5 6 8 10 9
47 46 46 45 47 48 46 45 46 47 49 48 49 47 48 49 51 45 41 36 32 27 18 22 20 19 18 19 18 17 17 15 12 9 14 15 14 14 12 11 17 8 11 9 11 9 9
49 47 46 46 47 47 47 46 45 46 48 46 49 48 50 51 44 43 41 39 32 25 16 18 19 19 18 20 16 20 19 14 12 11 13 11 14 11 10 10 14 13 11 11 9 14 15
49 49 49 47 46 46 48 49 47 45 47 45 47 49 51 46 38 41 34 33 29 27 20 22 19 21 19 15 16 16 19 13 11 13 14 8 10 10 11 14 16 15 13 11 9 7 11
49 49 48 48 49 46 45 45 48 46 46 45 48 49 48 39 34 33 33 31 28 24 18 16 17 15 14 16 17 16 15 15 16 12 12 10 13 14 16 16 16 16 15 16 15 12 11
49 49 49 48 47 48 48 47 46 45 45 46 49 50 44 36 29 32 32 29 22 21 18 14 14 14 12 13 14 13 12 11 14 10 7 10 10 16 17 13 13 11 14 12 12 8 15
50 50 49 49 48 48 47 49 47 46 45 47 47 50 43 34 33 32 29 22 17 21 18 17 16 13 10 13 13 13 10 10 10 14 12 10 9 13 16 16 14 5 13 17 7 7 11
51 51 51 50 49 48 48 47 48 47 46 46 47 43 41 41 33 31 23 18 20 20 20 15 13 10 10 12 13 11 8 11 14 15 11 10 11 16 20 19 18 10 7 14 7 2 7
52 52 51 51 50 49 48 49 48 48 47 46 42 41 38 39 33 27 20 19 18 24 18 15 15 14 12 10 11 12 11 16 14 16 17 12 12 14 15 17 16 13 14 11 10 5 4
52 52 52 52 51 51 50 50 49 49 48 46 40 35 34 36 30 21 17 18 18 23 18 16 17 15 15 13 12 11 12 13 15 16 18 14 13 12 14 13 10 11 9 4 9 11 8
52 52 52 52 51 51 50 50 51 49 47 44 36 24 35 32 23 22 19 19 25 21 21 19 21 19 17 14 13 12 12 14 17 19 13 17 12 8 10 6 10 8 9 8 13 5 2
52 52 52 52 51 51 51 51 51 50 48 41 37 30 34 31 21 20 21 21 23 24 21 21 20 21 19 16 14 13 15 16 20 18 17 19 13 7 9 10 12 9 10 9 4 2 3
52 52 51 51 51 51 51 51 51 50 47 40 34 27 30 31 28 22 22 20 20 25 26 22 22 21 21 18 16 17 16 20 23 19 24 24 14 11 8 11 11 7 8 11 12 7 8
48 51 52 51 50 50 51 50 50 50 48 40 36 29 29 26 27 26 24 22 18 19 27 26 24 20 21 20 20 18 18 21 22 24 26 23 14 14 14 15 14 11 11 12 12 14 13
50 49 51 52 52 51 51 50 50 50 49 42 35 32 28 26 26 27 26 23 21 20 26 25 26 25 23 21 20 21 23 23 22 21 23 19 19 15 11 16 15 14 15 13 14 15 15
45 49 49 49 49 49 49 50 50 50 49 42 42 37 34 28 24 25 24 23 22 23 24 20 25 24 25 23 22 26 29 29 28 22 21 18 15 14 14 15 17 17 17 17 13 14 17
43 44 45 47 49 49 49 49 49 48 48 46 43 39 33 29 28 25 24 25 24 23 22 23 23 28 27 31 34 34 31 30 28 21 23 19 17 22 19 20 13 16 15 21 19 19 17
42 42 43 44 44 43 45 49 47 48 48 46 42 39 32 32 32 28 25 25 25 25 25 24 24 28 35 34 29 26 26 28 27 27 24 26 26 22 19 17 17 18 15 18 18 19 22
41 42 42 42 40 41 42 44 47 48 48 43 41 41 34 32 32 32 29 27 26 26 26 26 26 34 35 32 28 21 19 15 17 24 30 29 29 24 22 17 13 16 17 17 20 17 23
40 42 41 39 38 40 42 42 43 44 47 45 41 39 34 30 34 36 32 30 31 30 30 30 29 31 34 29 25 23 22 20 18 17 22 23 24 21 20 19 18 17 10 13 13 14 23
39 41 42 38 39 39 40 40 40 41 42 44 41 40 35 32 34 36 36 35 32 32 30 32 32 31 30 27 26 26 25 23 20 17 21 21 20 19 21 19 16 16 17 18 19 10 10
40 40 40 39 37 37 39 39 38 39 40 42 39 41 40 34 33 38 37 37 36 36 34 33 31 32 33 29 29 28 27 26 25 20 15 20 22 20 21 21 23 20 18 16 11 15 16
Lifted_Index
8 8 8 8 9 9 10 10 10 10 11 12 12 12 12 12 12 12 12 12 12 13 13 14 14 15 15 13 14 18 18 17 16 14 12 10 9 8 7 6 6 6 7 8 8 9 9
9 9 9 9 9 9 10 10 10 11 11 12 12 12 12 12 12 12 12 12 12 13 13 14 15 16 14 13 16 18 18 17 16 14 12 11 10 9 7 7 7 7 7 7 8 9 9
11 11 10 10 9 9 10 10 11 12 12 13 13 13 12 12 12 12 12 12 12 13 13 14 15 16 14 14 17 19 18 16 15 14 13 12 11 10 8 7 7 7 6 6 7 8 8
12 12 12 11 11 10 10 10 11 12 12 13 13 13 13 12 12 12 12 12 13 13 13 14 16 15 14 16 18 18 17 16 15 15 14 13 12 10 8 8 7 6 5 5 6 7 8
13 12 12 12 12 11 10 10 10 11 12 13 13 13 13 13 12 12 12 13 13 14 14 15 16 15 14 15 17 17 17 15 14 14 14 13 11 9 8 6 5 4 4 4 5 6 7
12 12 12 13 13 12 11 11 10 11 12 12 13 14 13 13 13 12 13 13 14 14 15 15 15 14 14 15 16 17 17 15 13 12 11 10 9 7 6 5 4 4 4 4 5 6 7
12 12 12 13 13 13 13 12 12 11 12 12 13 13 13 13 13 12 13 14 14 14 14 14 14 14 14 15 15 16 16 14 12 10 9 8 7 6 6 6 5 4 4 4 5 6 6
12 12 12 13 13 13 13 13 13 12 12 12 13 13 13 13 12 12 13 15 15 14 13 13 14 14 15 15 14 14 14 13 10 8 7 6 6 6 7 6 6 5 4 4 5 6 6
12 12 12 13 13 13 13 13 13 13 12 13 13 13 12 12 12 13 14 15 16 14 12 12 13 14 15 14 13 13 14 12 9 7 6 6 6 7 7 6 5 5 5 5 5 5 5
12 12 12 12 12 12 12 13 13 13 13 13 13 12 12 12 13 13 14 15 16 14 10 9 12 14 14 13 12 13 14 12 9 7 6 6 7 7 6 6 5 5 5 5 5 4 4
11 11 11 11 11 12 12 12 12 13 13 13 12 12 12 12 13 14 15 16 15 12 7 7 10 12 13 11 11 12 14 12 9 8 7 7 7 6 6 6 6 6 6 6 5 4 3
10 10 11 11 11 11 11 11 12 12 13 12 12 11 12 13 14 14 15 15 12 8 5 6 8 9 9 9 9 10 11 10 9 7 6 6 7 7 6 7 7 6 5 5 4 3 2
9 10 10 10 10 10 10 11 11 12 12 12 11 11 11 12 13 14 14 12 8 6 5 5 6 6 6 6 6 7 7 7 6 5 4 5 5 6 7 6 6 6 4 3 2 1 1
9 9 9 9 10 10 10 10 10 11 12 12 11 11 11 12 13 14 12 9 6 5 5 5 5 5 5 5 5 5 5 4 4 4 3 3 4 5 6 6 5 5 4 2 1 1 1
8 8 8 8 8 9 9 9 9 10 11 11 11 11 11 12 13 13 10 7 6 5 5 5 4 4 4 4 5 4 4 4 4 4 4 3 3 5 6 7 6 5 4 4 3 2 1
7 7 7 7 7 8 8 8 8 9 10 11 11 11 11 12 12 12 9 7 7 6 6 5 4 4 4 4 4 4 4 5 5 5 5 4 4 5 6 7 7 6 5 4 4 2 1
6 7 7 7 7 7 7 7 7 8 9 10 11 11 11 12 12 11 9 8 8 7 7 6 5 5 5 5 5 5 5 5 5 5 5 5 5 5 6 6 6 6 5 5 4 3 2
6 6 6 7 7 7 7 6 7 7 9 10 10 10 11 11 10 10 9 8 8 8 7 7 6 6 6 5 5 5 5 6 6 6 6 6 5 5 5 6 7 7 6 5 5 4 3
5 6 6 6 6 7 7 7 7 7 8 9 10 10 10 11 10 9 9 9 8 8 7 7 7 7 7 6 6 6 6 6 7 6 6 6 5 4 5 6 7 7 6 6 5 4 4
6 6 5 6 6 6 6 6 7 7 8 9 10 10 11 10 10 9 9 8 8 8 7 7 7 7 7 6 6 6 6 7 7 6 6 6 5 4 4 5 6 6 6 6 6 5 5
6 6 5 5 5 5 5 5 6 7 7 8 9 10 10 10 9 9 8 8 7 7 7 7 7 7 6 6 6 5 6 6 6 6 6 5 5 4 4 5 6 6 6 6 6 6 5
6 6 5 5 5 4 4 4 5 5 6 7 8 9 10 9 9 8 8 7 7 7 8 7 7 7 6 6 6 5 6 6 6 6 6 6 5 4 4 5 5 5 6 6 6 6 6
6 6 5 5 5 4 4 4 4 4 4 5 7 8 8 8 8 8 8 7 7 7 7 8 8 7 7 7 7 7 7 7 7 7 7 7 6 4 4 4 4 4 5 6 6 6 6
6 6 6 5 5 4 4 4 4 4 4 4 5 6 6 6 6 7 7 6 6 7 7 8 8 8 8 8 8 7 7 7 7 8 8 7 6 5 5 4 4 4 6 6 6 6 6
5 5 5 5 5 5 5 5 4 4 4 4 5 5 5 4 4 5 6 5 6 6 7 7 7 8 8 8 7 6 6 6 7 7 8 8 7 5 4 4 4 5 6 7 6 6 6
5 5 5 5 5 5 5 5 5 5 5 5 5 5 4 3 4 5 5 5 5 5 6 6 6 7 7 6 5 5 5 5 6 6 7 7 6 5 4 3 4 5 6 7 6 5 6
5 5 5 5 5 5 5 5 5 5 5 5 5 6 5 4 4 4 5 5 5 5 5 5 5 6 5 4 4 4 4 5 5 5 5 5 5 4 3 3 4 5 6 6 5 5 6
4 4 5 5 5 5 5 5 5 5 5 5 6 6 6 5 5 5 5 5 5 5 5 5 5 5 5 4 4 4 4 4 4 4 4 4 4 3 3 3 4 5 6 5 5 5 5
4 4 4 5 5 5 5 5 5 5 5 5 6 6 6 6 5 5 5 5 5 5 5 5 5 5 5 4 4 4 3 3 3 4 4 4 3 3 3 3 3 5 5 5 5 5 5